Location: Bamazo
(6.7448°N, 10.8189°W)
Time: 01:08:26
(UTC+00:00)

Iridium 4 Rocket - Pass Details

Date: 18 September 2020
Orbit: 585 x 904 km, 86.9° (Epoch: 21 October)

Event Time Altitude Azimuth Distance (km) Brightness Sun altitude
Rises 19:09:58 0° 176° (S) 2,862 6.4 -8.0°
Reaches altitude 10° 19:12:06 10° 174° (S) 1,987 5.6 -8.5°
Maximum altitude 19:16:27 74° 89° (E) 681 3.1 -9.6°
Drops below altitude 10° 19:21:10 10° 4° (N) 2,151 5.8 -10.7°
Sets 19:23:33 0° 3° (N) 3,121 6.7 -11.3°
